860  
ASUS42 KCAE 190810  
RWRCAE  
REGIONAL WEATHER ROUNDUP  
NATIONAL WEATHER SERVICE COLUMBIA SC  
400 AM EDT THU SEP 19 2019  
 
NOTE: "FAIR" INDICATES FEW OR NO CLOUDS BELOW 12,000 FEET WITH NO  
SIGNIFICANT WEATHER AND/OR S TO VISIBILITY
.  
 
NOT ALL STATIONS ARE QUALITY CONTROLLED BY THE NATIONAL  
WEATHER SERVICE. USE DATA WITH CAUTION...ESPECIALLY  
DEWPOINT OBSERVATIONS.  
 
SCZ001>056-GAZ040-063>065-077-190900-   
..UPSTATE SOUTH CAROLINA
 
 
 
CITY SKY/WX TMP DP RH WIND PRES REMARKS
 
ANDERSON CLOUDY 71 59 65 E9 30.18S  
LIBERTY CLOUDY 69 63 81 E5 30.19S  
SPARTANBURG CLOUDY 68 55 64 CALM 30.20S  
CLEMSON CLOUDY 70 61 73 E9 30.19S  
GREENVILLE CLOUDY 70 59 68 E7 30.21R  
GREENWOOD CLOUDY 69 57 65 E3 30.19S  
GREER CLOUDY 69 57 65 E6 30.20S  
ROCK HILL FAIR 65 52 62 SE7 30.23R  
CHESTER PTSUNNY 64 50 59 E7 30.22R  
LAURENS CLOUDY 68 55 64 E5 30.19R  
 
   
..CENTRAL SOUTH CAROLINA
 
 
 
CITY SKY/WX TMP DP RH WIND PRES REMARKS
 
COLUMBIA APT FAIR 69 53 56 E7 30.18R  
COLUMBIA OWENS FAIR 68 52 56 VRB5 30.19R  
MCENTIRE ANGB FAIR 65 52 64 E7 30.18R  
ORANGEBURG FAIR 66 52 60 NE6 30.16S  
SUMTER SHAW FAIR 62 53 73 NE8 30.18S  
AIKEN PTSUNNY 64 54 68 NE5 30.19S  
BARNWELL CLOUDY 66 57 72 E6 30.15S  
MANNING FAIR 61 54 77 CALM 30.18R  
CAMDEN FAIR 63 54 72 NE6 30.20S  
LANCASTER CLOUDY 63 54 72 CALM 30.21R  
WINNSBORO FAIR 64 52 63 E7 30.20R  
 
   
..EASTERN AND COASTAL SOUTH CAROLINA
 
 
 
CITY SKY/WX TMP DP RH WIND PRES REMARKS
 
MYRTLE BEACH FAIR 62 55 77 N8 30.17R  
N MYRTLE BCH FAIR 61 55 81 N6 30.16S  
MARION FAIR 55 54 94 N3 30.19S  
HARTSVILLE FAIR 59 54 82 NE6 30.21R  
FLORENCE FAIR 60 54 80 N7 30.19S  
DARLINGTON FAIR 58 55 90 N5 30.21R  
CHARLESTON APT FAIR 65 56 72 NE10 30.13S  
MOUNT PLEASANT PTSUNNY 66 59 77 VRB5 30.13S  
WALTERBORO FAIR 64 55 72 NE5 30.14F  
BEAUFORT FAIR 69 60 73 NE8 30.11F  
HILTON HEAD FAIR 73 63 68 NE14 30.11S  
 
   
..EASTERN GEORGIA
 
 
 
CITY SKY/WX TMP DP RH WIND PRES REMARKS
 
AUGUSTA BUSH F CLOUDY 68 59 73 CALM 30.14S  
AUGUSTA DANIEL CLOUDY 71 56 58 E7 30.16R  
THOMSON CLOUDY 70 59 68 S6 30.15S  
CLAXTON FAIR 68 66 93 CALM 30.10S  
SYLVANIA CLOUDY 68 59 72 NE3 30.14R  
STATESBORO MOCLDY 70 57 64 NE5 30.12R  
SAVANNAH MOCLDY 70 64 81 N8 30.10S  
 
   
..SOUTHERN NORTH CAROLINA
 
 
 
CITY SKY/WX TMP DP RH WIND PRES REMARKS
 
CHARLOTTE FAIR 65 53 65 E9 30.23R  
MONROE FAIR 61 52 72 E6 30.22R  
WADESBORO N/A 55 52 92 MISG 30.22R  
ROCKINGHAM FAIR 57 53 87 CALM 30.22R  
RUTHERFORDTON CLOUDY 66 59 77 CALM 30.23S  
ASHEVILLE CLOUDY 65 59 81 SE7 30.24S  
 

 
 
 
CLICK HERE TO GO TO PREVIOUS BULLETINS.

The Nexlab SC Page
The Nexlab GA Page Main Text Page